St. Inigoes, MD

3:31 PM EST on November 18, 2017 (GMT -0500)
Webster Naval Outlying Field

Weather History for KNUI - August, 2013

Change the Weather History Date:

Monday, August 19, 2013

  Actual Average (KNHK) Record (KNHK)
Temperature  
Mean Temperature 67 °F -  
Max Temperature 72 °F 81 °F 93 °F (1978)
Min Temperature 62 °F 68 °F 60 °F (2007)
Cooling Degree Days 2    
Growing Degree Days 17 (Base 50)    
Moisture  
Dew Point 64 °F    
Average Humidity 88    
Maximum Humidity 100    
Minimum Humidity 78    
Precipitation  
Precipitation 0.03 in - - ()
Sea Level Pressure  
Sea Level Pressure 30.15 in    
Wind  
Wind Speed 2 mph (SW)    
Max Wind Speed 10 mph    
Max Gust Speed -    
Visibility 8 miles    
Events Fog , Rain    
Averages and records for this station are not official NWS values.
T = Trace of Precipitation, MM = Missing Value Source: NWS Daily Summary

Daily Weather History Graph

Daily Weather History Graph

Search for Another Location

Airport or City:

Trip Planner

Search our weather history database for the weather conditions in past years. The results will help you decide how hot, cold, wet, or windy it might be!

Date:

Astronomy

Aug. 19, 2013 Rise Set
Actual Time 6:24 AM EDT 7:53 PM EDT
Civil Twilight 5:56 AM EDT 8:21 PM EDT
Nautical Twilight 5:23 AM EDT 8:54 PM EDT
Astronomical Twilight 4:47 AM EDT 9:29 PM EDT
Moon 6:43 PM EDT (8/19) 4:41 AM EDT (8/19)
Length of Visible Light 14h 24m
Length of Day
13h 29m
Waxing Gibbous, 97% of the Moon is Illuminated
Aug 19
Waxing Gibbous
Aug 20
Full
Aug 28
Last Quarter
Sep 5
New
Sep 12
First Quarter

Hourly Weather History & Observations

Time (EDT) Temp. Dew Point Humidity Pressure Visibility Wind Dir Wind Speed Gust Speed Precip Events Conditions
12:07 AM 64.4 °F 62.6 °F 94% 30.18 in 1.8 mi Calm Calm - N/A   Mostly Cloudy
12:24 AM 64.4 °F 62.6 °F 94% 30.18 in 0.8 mi Calm Calm - N/A   Partly Cloudy
12:32 AM 64.4 °F 62.6 °F 94% 30.18 in 1.0 mi Calm Calm - N/A   Mist
12:41 AM 64.4 °F 62.6 °F 94% 30.18 in 1.0 mi Calm Calm - N/A   Clear
12:50 AM 62.6 °F 62.6 °F 100% 30.18 in 1.8 mi Calm Calm - N/A   Partly Cloudy
12:53 AM 64.0 °F 62.1 °F 93% 30.18 in 1.0 mi Calm Calm - N/A   Mist
12:55 AM 64.4 °F 62.6 °F 94% 30.18 in 0.8 mi Calm Calm - N/A   Clear
12:57 AM 64.4 °F 60.8 °F 88% 30.18 in 0.5 mi Calm Calm - N/A Fog Fog
1:10 AM 64.4 °F 62.6 °F 94% 30.17 in 1.0 mi Calm Calm - N/A   Mist
1:19 AM 62.6 °F 62.6 °F 100% 30.18 in 1.5 mi Calm Calm - N/A   Partly Cloudy
1:39 AM 64.4 °F 62.6 °F 94% 30.18 in 3.0 mi Calm Calm - N/A   Partly Cloudy
1:53 AM 64.0 °F 62.1 °F 93% 30.17 in 6.0 mi SW 3.5 mph - N/A   Mostly Cloudy
2:00 AM 66.2 °F 64.4 °F 94% 30.18 in 9.0 mi SW 4.6 mph - N/A   Mostly Cloudy
2:26 AM 66.2 °F 62.6 °F 88% 30.16 in 9.0 mi Calm Calm - N/A   Overcast
2:53 AM 66.0 °F 63.0 °F 90% 30.16 in 6.0 mi Calm Calm - N/A   Mostly Cloudy
3:17 AM 66.2 °F 64.4 °F 94% 30.15 in 10.0 mi WSW 3.5 mph - N/A   Overcast
3:27 AM 66.2 °F 64.4 °F 94% 30.15 in 10.0 mi West 3.5 mph - N/A   Overcast
3:53 AM 66.9 °F 64.0 °F 90% 30.15 in 10.0 mi WSW 4.6 mph - N/A   Mostly Cloudy
4:53 AM 66.9 °F 64.0 °F 90% 30.15 in 10.0 mi Calm Calm - N/A   Mostly Cloudy
5:07 AM 66.2 °F 62.6 °F 88% 30.16 in 10.0 mi Calm Calm - N/A   Scattered Clouds
5:49 AM 66.2 °F 62.6 °F 88% 30.16 in 10.0 mi WSW 4.6 mph - N/A   Mostly Cloudy
5:53 AM 66.9 °F 63.0 °F 87% 30.16 in 10.0 mi SW 3.5 mph - N/A   Mostly Cloudy
6:11 AM 66.2 °F 62.6 °F 88% 30.16 in 9.0 mi Calm Calm - N/A   Scattered Clouds
6:53 AM 66.0 °F 63.0 °F 90% 30.17 in 6.0 mi Calm Calm - N/A   Mostly Cloudy
7:53 AM 66.9 °F 64.0 °F 90% 30.16 in 5.0 mi Calm Calm - 0.00 in Rain Light Rain
8:53 AM 69.1 °F 64.0 °F 84% 30.17 in 10.0 mi SSW 4.6 mph - 0.01 in   Overcast
9:53 AM 69.1 °F 64.0 °F 84% 30.17 in 10.0 mi WSW 5.8 mph - 0.00 in Rain Light Rain
10:53 AM 69.1 °F 64.9 °F 87% 30.15 in 10.0 mi SSW 3.5 mph - 0.01 in Rain Light Rain
11:09 AM 69.8 °F 66.2 °F 88% 30.15 in 8.0 mi South 5.8 mph - 0.01 in Rain Light Rain
11:33 AM 69.8 °F 64.4 °F 83% 30.14 in 10.0 mi SSW 6.9 mph - 0.01 in Rain Light Rain
11:48 AM 69.8 °F 64.4 °F 83% 30.14 in 10.0 mi SSW 4.6 mph - 0.01 in Rain Light Rain
11:53 AM 70.0 °F 64.9 °F 84% 30.14 in 10.0 mi SSW 6.9 mph - 0.01 in Rain Light Rain
12:02 PM 69.8 °F 66.2 °F 88% 30.14 in 10.0 mi SSW 5.8 mph - 0.00 in   Overcast
12:35 PM 69.8 °F 66.2 °F 88% 30.14 in 10.0 mi SW 5.8 mph - 0.00 in   Overcast
12:53 PM 71.1 °F 66.0 °F 84% 30.10 in 10.0 mi SE 10.4 mph - 0.00 in   Mostly Cloudy
1:02 PM 71.6 °F 66.2 °F 83% 30.13 in 10.0 mi Variable 5.8 mph - 0.00 in Rain Light Rain
1:40 PM 71.6 °F 64.4 °F 78% 30.14 in 10.0 mi WSW 6.9 mph - 0.00 in   Overcast
1:53 PM 71.1 °F 66.0 °F 84% 30.14 in 10.0 mi WSW 8.1 mph - 0.00 in   Overcast
2:20 PM 71.6 °F 64.4 °F 78% 30.14 in 10.0 mi WSW 6.9 mph - N/A   Overcast
2:53 PM 71.1 °F 64.9 °F 81% 30.12 in 10.0 mi SW 5.8 mph - N/A   Overcast
3:53 PM 71.1 °F 66.0 °F 84% 30.11 in 10.0 mi SW 6.9 mph - N/A   Overcast
4:22 PM 71.6 °F 66.2 °F 83% 30.10 in 10.0 mi WSW 5.8 mph - N/A   Overcast
4:53 PM 72.0 °F 66.0 °F 81% 30.10 in 10.0 mi WSW 5.8 mph - N/A   Overcast
5:39 PM 71.6 °F 66.2 °F 83% 30.09 in 10.0 mi SSW 6.9 mph - N/A   Overcast
5:53 PM 72.0 °F 66.0 °F 81% 30.10 in 10.0 mi SW 5.8 mph - N/A   Overcast
6:53 PM 72.0 °F 66.0 °F 81% 30.10 in 10.0 mi West 3.5 mph - N/A   Overcast
7:53 PM 71.1 °F 66.0 °F 84% 30.09 in 10.0 mi WSW 3.5 mph - N/A   Overcast
8:53 PM 71.1 °F 66.0 °F 84% 30.09 in 10.0 mi South 4.6 mph - N/A   Overcast
9:53 PM 70.0 °F 66.9 °F 90% 30.12 in 8.0 mi Calm Calm - N/A   Overcast
10:53 PM 71.1 °F 66.9 °F 87% 30.12 in 9.0 mi Calm Calm - N/A   Overcast
11:53 PM 69.1 °F 66.0 °F 90% 30.11 in 10.0 mi Calm Calm - N/A   Mostly Cloudy